Weather History for Oakland, CA

Change the Weather History Date:

Friday, March 7, 2014

  Actual Average Record
Temperature  
Mean Temperature 57 °F 54 °F  
Max Temperature 66 °F 62 °F 79 °F (1953)
Min Temperature 48 °F 46 °F 34 °F (1956)
Degree Days  
Heating Degree Days 8 11  
Month to date heating degree days 44 82  
Since 1 July heating degree days 1865 2104  
Cooling Degree Days 0 0  
Month to date cooling degree days 0 0  
Year to date cooling degree days 0 0  
Growing Degree Days 6 (Base 50)    
Moisture  
Dew Point 47 °F    
Average Humidity 67    
Maximum Humidity 89    
Minimum Humidity 44    
Precipitation  
Precipitation 0.00 in 0.10 in 0.59 in (1975)
Month to date precipitation 0.42 0.82  
Year to date precipitation 4.12 8.76  
Since 1 July precipitation 6.19 16.35  
Sea Level Pressure  
Sea Level Pressure 30.15 in    
Wind  
Wind Speed 6 mph (WNW)    
Max Wind Speed 14 mph    
Max Gust Speed 24 mph    
Visibility 10 miles    
Events      
T = Trace of Precipitation, MM = Missing Value Source: NWS Daily Summary

Daily Weather History Graph

Daily Weather History Graph

Search for Another Location

Airport:

Trip Planner

Search our weather history database for the weather conditions in past years. The results will help you decide how hot, cold, wet, or windy it might be!

Date:

Astronomy

Mar. 07, 2014 Rise Set
Actual Time 6:31 AM PST 6:08 PM PST
Civil Twilight 6:05 AM PST 6:34 PM PST
Nautical Twilight 5:35 AM PST 7:05 PM PST
Astronomical Twilight 5:04 AM PST 7:35 PM PST
Moon 10:35 AM PST (3/7) 12:12 AM PST (3/7)
Length of Visible Light 12h 29m
Length of Day
11h 36m
Waxing Crescent, 43% of the Moon is Illuminated
Mar 7
Waxing Crescent
Mar 8
First Quarter
Mar 16
Full
Mar 23
Last Quarter
Mar 30
New

Hourly Weather History & Observations

Time (PST) Temp. Dew Point Humidity Pressure Visibility Wind Dir Wind Speed Gust Speed Precip Events Conditions
12:53 AM 52.0 °F 48.0 °F 86% 30.19 in 9.0 mi NW 4.6 mph - N/A   Clear
1:53 AM 50.0 °F 46.9 °F 89% 30.18 in 9.0 mi Calm Calm - N/A   Clear
2:53 AM 52.0 °F 48.0 °F 86% 30.17 in 10.0 mi NW 6.9 mph - N/A   Clear
3:53 AM 51.1 °F 46.9 °F 86% 30.16 in 10.0 mi NNE 3.5 mph - N/A   Clear
4:53 AM 50.0 °F 45.0 °F 83% 30.16 in 10.0 mi NNW 5.8 mph - N/A   Clear
5:53 AM 50.0 °F 45.0 °F 83% 30.16 in 10.0 mi Calm Calm - N/A   Partly Cloudy
6:53 AM 48.0 °F 44.1 °F 86% 30.17 in 10.0 mi NE 3.5 mph - N/A   Overcast
7:53 AM 54.0 °F 46.9 °F 77% 30.18 in 10.0 mi Calm Calm - N/A   Mostly Cloudy
8:53 AM 57.0 °F 46.0 °F 67% 30.19 in 10.0 mi Calm Calm - N/A   Mostly Cloudy
9:53 AM 59.0 °F 44.1 °F 58% 30.19 in 10.0 mi West 9.2 mph - N/A   Mostly Cloudy
10:53 AM 60.1 °F 46.0 °F 60% 30.18 in 10.0 mi WNW 6.9 mph - N/A   Mostly Cloudy
11:53 AM 63.0 °F 43.0 °F 48% 30.17 in 10.0 mi WNW 11.5 mph - N/A   Mostly Cloudy
12:53 PM 63.0 °F 46.9 °F 56% 30.16 in 10.0 mi West 8.1 mph - N/A   Scattered Clouds
1:53 PM 64.9 °F 43.0 °F 45% 30.13 in 10.0 mi West 11.5 mph - N/A   Scattered Clouds
2:53 PM 64.9 °F 50.0 °F 58% 30.14 in 10.0 mi West 11.5 mph - N/A   Partly Cloudy
3:53 PM 63.0 °F 48.9 °F 60% 30.12 in 10.0 mi WSW 8.1 mph - N/A   Partly Cloudy
4:53 PM 62.1 °F 50.0 °F 65% 30.11 in 10.0 mi West 10.4 mph - N/A   Partly Cloudy
5:53 PM 60.1 °F 48.9 °F 67% 30.11 in 10.0 mi West 10.4 mph - N/A   Scattered Clouds
6:53 PM 57.9 °F 50.0 °F 75% 30.12 in 10.0 mi West 10.4 mph - N/A   Scattered Clouds
7:53 PM 57.0 °F 48.9 °F 74% 30.14 in 10.0 mi NW 8.1 mph - N/A   Scattered Clouds
8:53 PM 55.9 °F 48.9 °F 77% 30.15 in 10.0 mi Calm Calm - N/A   Clear
9:53 PM 55.0 °F 50.0 °F 83% 30.15 in 10.0 mi WNW 8.1 mph - N/A   Clear
10:53 PM 55.0 °F 48.9 °F 80% 30.14 in 10.0 mi WNW 4.6 mph - N/A   Clear
11:53 PM 53.1 °F 48.0 °F 83% 30.15 in 10.0 mi Calm Calm - N/A   Clear